Weather History for PAGA - November, 2013

Change the Weather History Date:

Sunday, November 3, 2013

  Actual Average Record
Temperature  
Mean Temperature 26 °F -  
Max Temperature 30 °F 17 °F 39 °F (2003)
Min Temperature 23 °F 5 °F -36 °F (1975)
Degree Days  
Heating Degree Days 38    
Moisture  
Dew Point 23 °F    
Average Humidity 90    
Maximum Humidity 93    
Minimum Humidity 85    
Precipitation  
Precipitation 0.00 in - - ()
Sea Level Pressure  
Sea Level Pressure 29.60 in    
Wind  
Wind Speed 14 mph (ESE)    
Max Wind Speed 20 mph    
Max Gust Speed 22 mph    
Visibility 7 miles    
Events Snow    
Averages and records for this station are not official NWS values.
T = Trace of Precipitation, MM = Missing Value Source: NWS Daily Summary

Daily Weather History Graph

Daily Weather History Graph

Search for Another Location

Airport or City:

Trip Planner

Search our weather history database for the weather conditions in past years. The results will help you decide how hot, cold, wet, or windy it might be!

Date:

Astronomy

Nov. 03, 2013 Rise Set
Actual Time 9:22 AM AKST 4:58 PM AKST
Civil Twilight 8:27 AM AKST 5:54 PM AKST
Nautical Twilight 7:28 AM AKST 6:53 PM AKST
Astronomical Twilight 6:31 AM AKST 7:49 PM AKST
Moon 9:52 AM AKST (11/3) 5:04 PM AKST (11/3)
Length of Visible Light 9h 27m
Length of Day
7h 35m
New Moon, 0% of the Moon is Illuminated
Nov 3
New Moon
Nov 9
First Quarter
Nov 17
Full
Nov 25
Last Quarter
Dec 2
New

Hourly Weather History & Observations

Time (AKST) Temp. Windchill Dew Point Humidity Pressure Visibility Wind Dir Wind Speed Gust Speed Precip Events Conditions
12:35 AM 23.0 °F 10.6 °F 19.4 °F 86% 29.72 in 2.5 mi East 13.8 mph - N/A Snow Light Snow
12:41 AM 23.0 °F 11.1 °F 19.4 °F 86% 29.72 in 3.0 mi East 12.7 mph - N/A Snow Light Snow
12:58 AM 23.0 °F 10.6 °F 19.9 °F 88% 29.74 in 3.0 mi East 13.8 mph - N/A Snow Light Snow
1:07 AM 23.0 °F 10.6 °F 19.4 °F 86% 29.72 in 2.5 mi East 13.8 mph - N/A Snow Light Snow
1:16 AM 23.0 °F 10.6 °F 21.2 °F 93% 29.72 in 3.0 mi East 13.8 mph - N/A Snow Light Snow
1:28 AM 23.0 °F 11.1 °F 21.2 °F 93% 29.72 in 2.5 mi East 12.7 mph - N/A Snow Light Snow
1:42 AM 23.0 °F 11.1 °F 21.2 °F 93% 29.72 in 3.0 mi East 12.7 mph - N/A Snow Light Snow
1:50 AM 23.0 °F 10.6 °F 21.2 °F 93% 29.72 in 2.5 mi East 13.8 mph - N/A Snow Light Snow
1:58 AM 23.0 °F 10.1 °F 21.0 °F 92% 29.74 in 2.5 mi East 15.0 mph - N/A Snow Light Snow
1:02 AM 23.0 °F 11.1 °F 21.2 °F 93% 29.72 in 3.0 mi East 12.7 mph - N/A Snow Light Snow
1:25 AM 23.0 °F 11.1 °F 21.2 °F 93% 29.71 in 9.0 mi East 12.7 mph - N/A Snow Light Snow
1:58 AM 24.1 °F 14.4 °F 21.0 °F 88% 29.73 in 9.0 mi ENE 9.2 mph - N/A Snow Light Snow
2:58 AM 24.1 °F 15.2 °F 21.0 °F 88% 29.72 in 10.0 mi East 8.1 mph - N/A   Overcast
3:58 AM 24.1 °F 10.1 °F 21.0 °F 88% 29.70 in 10.0 mi East 18.4 mph - N/A   Overcast
4:58 AM 24.1 °F 11.0 °F 21.0 °F 88% 29.67 in 10.0 mi East 16.1 mph - N/A   Overcast
5:58 AM 24.1 °F 11.5 °F 21.9 °F 91% 29.65 in 4.0 mi East 15.0 mph - N/A Snow Light Snow
6:56 AM 24.8 °F 13.4 °F 21.2 °F 86% 29.61 in 9.0 mi East 12.7 mph - N/A Snow Light Snow
6:58 AM 25.0 °F 13.6 °F 21.9 °F 88% 29.63 in 9.0 mi East 12.7 mph - N/A Snow Light Snow
7:20 AM 24.8 °F 13.4 °F 21.2 °F 86% 29.60 in 9.0 mi East 12.7 mph - N/A Snow Light Snow
7:58 AM 25.0 °F 13.1 °F 23.0 °F 92% 29.61 in 3.0 mi East 13.8 mph - N/A Snow Light Snow
8:15 AM 24.8 °F 12.9 °F 23.0 °F 93% 29.59 in 4.0 mi East 13.8 mph - N/A Snow Light Snow
8:24 AM 26.6 °F 14.3 °F 23.0 °F 86% 29.58 in 8.0 mi East 16.1 mph - N/A Snow Light Snow
8:32 AM 26.6 °F 15.2 °F 23.0 °F 86% 29.58 in 9.0 mi East 13.8 mph - N/A Snow Light Snow
8:36 AM 26.6 °F 15.2 °F 23.0 °F 86% 29.58 in 9.0 mi ESE 13.8 mph - N/A Snow Light Snow
8:58 AM 26.1 °F 13.6 °F 23.0 °F 88% 29.60 in 9.0 mi ESE 16.1 mph - N/A Snow Light Snow
9:58 AM 26.1 °F 14.5 °F 23.0 °F 88% 29.59 in 9.0 mi East 13.8 mph - N/A Snow Light Snow
10:27 AM 26.6 °F 14.3 °F 24.8 °F 93% 29.55 in 9.0 mi ESE 16.1 mph 21.9 mph N/A Snow Light Snow
10:58 AM 27.0 °F 14.7 °F 24.1 °F 89% 29.57 in 9.0 mi ESE 16.1 mph - N/A Snow Light Snow
11:04 AM 26.6 °F 14.7 °F 24.8 °F 93% 29.55 in 9.0 mi ESE 15.0 mph - N/A Snow Light Snow
11:58 AM 28.0 °F 14.9 °F 24.1 °F 85% 29.55 in 9.0 mi ESE 19.6 mph - N/A Snow Light Snow
12:58 PM 28.0 °F 17.5 °F 25.0 °F 88% 29.54 in 9.0 mi ESE 12.7 mph - N/A Snow Light Snow
1:58 PM 28.0 °F 16.1 °F 25.0 °F 88% 29.52 in 9.0 mi ESE 16.1 mph - N/A Snow Light Snow
2:58 PM 28.0 °F 16.1 °F 25.0 °F 88% 29.51 in 9.0 mi ESE 16.1 mph - N/A Snow Light Snow
3:58 PM 28.0 °F 16.5 °F 25.0 °F 88% 29.49 in 9.0 mi ESE 15.0 mph - N/A Snow Light Snow
4:58 PM 28.9 °F 18.2 °F 26.1 °F 89% 29.48 in 10.0 mi ESE 13.8 mph 19.6 mph N/A Snow Light Snow
5:58 PM 28.9 °F 18.2 °F 27.0 °F 92% 29.48 in 9.0 mi ESE 13.8 mph - N/A Snow Light Snow
6:58 PM 30.0 °F 20.5 °F 27.0 °F 88% 29.48 in 9.0 mi ESE 11.5 mph - N/A   Overcast
7:09 PM 30.2 °F 20.8 °F 28.4 °F 93% 29.45 in 10.0 mi ESE 11.5 mph - N/A   Overcast
7:58 PM 30.0 °F 20.5 °F 28.0 °F 92% 29.47 in 9.0 mi ESE 11.5 mph - N/A Snow Light Snow
8:58 PM 30.9 °F 20.7 °F 28.9 °F 92% 29.46 in 9.0 mi ESE 13.8 mph - N/A Snow Light Snow
9:58 PM 30.9 °F 19.8 °F 28.9 °F 92% 29.46 in 9.0 mi ESE 16.1 mph - N/A Snow Light Snow
10:51 PM 30.2 °F 21.3 °F 28.4 °F 93% 29.44 in 9.0 mi ESE 10.4 mph - N/A Snow Light Snow
10:58 PM 30.9 °F 20.7 °F 28.9 °F 92% 29.46 in 9.0 mi ESE 13.8 mph - N/A Snow Light Snow